Time,TemperatureF,DewpointF,PressureIn,WindDirection,WindDirectionDegrees,WindSpeedMPH,WindSpeedGustMPH,Humidity,HourlyPrecipIn,Conditions,Clouds,dailyrainin,SoftwareType,DateUTC
2013-05-30 00:01:00,66.0,42.0,29.90,ENE,66,8.0,16.0,41,0.00,,,0.00,,2013-05-30 07:01:00,
2013-05-30 00:11:00,66.0,42.0,29.90,ENE,66,8.0,16.0,41,0.00,,,0.00,,2013-05-30 07:11:00,
2013-05-30 00:21:00,66.0,46.0,29.91,East,81,8.0,15.0,48,0.00,,,0.00,,2013-05-30 07:21:00,
2013-05-30 00:31:00,65.0,44.0,29.91,ESE,107,11.0,13.0,47,0.00,,,0.00,,2013-05-30 07:31:00,
2013-05-30 00:42:00,65.0,44.0,29.91,ESE,107,11.0,13.0,47,0.00,,,0.00,,2013-05-30 07:42:00,
2013-05-30 00:52:00,66.0,42.0,29.91,East,86,12.0,14.0,42,0.00,,,0.00,,2013-05-30 07:52:00,
2013-05-30 01:01:00,67.0,41.0,29.91,ENE,68,14.0,17.0,39,0.00,,,0.00,,2013-05-30 08:01:00,
2013-05-30 01:11:00,67.0,41.0,29.91,ENE,68,14.0,17.0,39,0.00,,,0.00,,2013-05-30 08:11:00,
2013-05-30 01:21:00,67.0,41.0,29.91,East,96,12.0,16.0,38,0.00,,,0.00,,2013-05-30 08:21:00,
2013-05-30 01:31:00,67.0,42.0,29.91,ENE,78,14.0,18.0,40,0.00,,,0.00,,2013-05-30 08:31:00,
2013-05-30 01:41:00,67.0,42.0,29.91,ENE,78,14.0,18.0,40,0.00,,,0.00,,2013-05-30 08:41:00,
2013-05-30 01:52:00,66.0,42.0,29.90,ENE,70,12.0,17.0,42,0.00,,,0.00,,2013-05-30 08:52:00,
2013-05-30 02:01:00,66.0,42.0,29.90,ENE,70,14.0,18.0,42,0.00,,,0.00,,2013-05-30 09:01:00,
2013-05-30 02:11:00,66.0,42.0,29.90,ENE,70,14.0,18.0,42,0.00,,,0.00,,2013-05-30 09:11:00,
2013-05-30 02:21:00,66.0,43.0,29.91,East,97,10.0,17.0,43,0.00,,,0.00,,2013-05-30 09:21:00,
2013-05-30 02:32:00,65.0,42.0,29.91,ENE,75,11.0,16.0,43,0.00,,,0.00,,2013-05-30 09:32:00,
2013-05-30 02:42:00,65.0,42.0,29.91,ENE,75,11.0,16.0,43,0.00,,,0.00,,2013-05-30 09:42:00,
2013-05-30 02:53:00,65.0,42.0,29.91,ENE,78,12.0,15.0,43,0.00,,,0.00,,2013-05-30 09:53:00,
2013-05-30 03:02:00,64.0,42.0,29.91,East,98,10.0,13.0,44,0.00,,,0.00,,2013-05-30 10:02:00,
2013-05-30 03:12:00,64.0,42.0,29.91,East,98,10.0,13.0,44,0.00,,,0.00,,2013-05-30 10:12:00,
2013-05-30 03:22:00,64.0,42.0,29.91,ESE,103,12.0,15.0,45,0.00,,,0.00,,2013-05-30 10:22:00,
2013-05-30 03:32:00,63.0,42.0,29.91,East,97,11.0,14.0,47,0.00,,,0.00,,2013-05-30 10:32:00,
2013-05-30 03:42:00,63.0,42.0,29.91,East,97,11.0,14.0,47,0.00,,,0.00,,2013-05-30 10:42:00,
2013-05-30 03:52:00,63.0,42.0,29.91,ESE,111,10.0,14.0,47,0.00,,,0.00,,2013-05-30 10:52:00,
2013-05-30 04:02:00,63.0,42.0,29.91,ESE,103,12.0,14.0,47,0.00,,,0.00,,2013-05-30 11:02:00,
2013-05-30 04:12:00,63.0,42.0,29.91,ESE,103,12.0,14.0,47,0.00,,,0.00,,2013-05-30 11:12:00,
2013-05-30 04:21:00,63.0,41.0,29.91,East,98,10.0,13.0,45,0.00,,,0.00,,2013-05-30 11:21:00,
2013-05-30 04:32:00,62.0,40.0,29.91,ESE,116,10.0,13.0,45,0.00,,,0.00,,2013-05-30 11:32:00,
2013-05-30 04:42:00,62.0,40.0,29.91,ESE,116,10.0,13.0,45,0.00,,,0.00,,2013-05-30 11:42:00,
2013-05-30 04:52:00,62.0,40.0,29.91,East,100,8.0,12.0,44,0.00,,,0.00,,2013-05-30 11:52:00,
2013-05-30 05:01:00,62.0,39.0,29.91,East,85,9.0,10.0,43,0.00,,,0.00,,2013-05-30 12:01:00,
2013-05-30 05:11:00,62.0,39.0,29.91,East,85,9.0,10.0,43,0.00,,,0.00,,2013-05-30 12:11:00,
2013-05-30 05:21:00,62.0,39.0,29.91,East,85,11.0,13.0,43,0.00,,,0.00,,2013-05-30 12:21:00,
2013-05-30 05:31:00,61.0,38.0,29.91,East,92,12.0,14.0,43,0.00,,,0.00,,2013-05-30 12:31:00,
2013-05-30 05:42:00,61.0,38.0,29.91,East,92,12.0,14.0,43,0.00,,,0.00,,2013-05-30 12:42:00,
2013-05-30 05:52:00,61.0,38.0,29.91,East,83,10.0,13.0,42,0.00,,,0.00,,2013-05-30 12:52:00,
2013-05-30 06:01:00,61.0,38.0,29.91,ESE,102,9.0,12.0,42,0.00,,,0.00,,2013-05-30 13:01:00,
2013-05-30 06:11:00,61.0,38.0,29.91,ESE,102,9.0,12.0,42,0.00,,,0.00,,2013-05-30 13:11:00,
2013-05-30 06:21:00,61.0,37.0,29.91,East,93,8.0,13.0,41,0.00,,,0.00,,2013-05-30 13:21:00,
2013-05-30 06:32:00,63.0,38.0,29.92,East,101,9.0,12.0,39,0.00,,,0.00,,2013-05-30 13:32:00,
2013-05-30 06:41:00,63.0,38.0,29.92,East,101,9.0,12.0,39,0.00,,,0.00,,2013-05-30 13:41:00,
2013-05-30 06:52:00,64.0,37.0,29.92,East,95,9.0,12.0,37,0.00,,,0.00,,2013-05-30 13:52:00,
2013-05-30 07:01:00,65.0,37.0,29.92,East,91,8.0,12.0,36,0.00,,,0.00,,2013-05-30 14:01:00,
2013-05-30 07:11:00,65.0,37.0,29.92,East,91,8.0,12.0,36,0.00,,,0.00,,2013-05-30 14:11:00,
2013-05-30 07:21:00,66.0,37.0,29.92,ESE,106,9.0,12.0,34,0.00,,,0.00,,2013-05-30 14:21:00,
2013-05-30 07:32:00,68.0,36.0,29.92,East,99,10.0,13.0,31,0.00,,,0.00,,2013-05-30 14:32:00,
2013-05-30 07:42:00,68.0,36.0,29.92,East,99,10.0,13.0,31,0.00,,,0.00,,2013-05-30 14:42:00,
2013-05-30 07:52:00,69.0,36.0,29.93,ESE,107,11.0,13.0,30,0.00,,,0.00,,2013-05-30 14:52:00,
2013-05-30 08:01:00,69.0,35.0,29.93,ESE,103,12.0,15.0,29,0.00,,,0.00,,2013-05-30 15:01:00,
2013-05-30 08:11:00,69.0,35.0,29.93,ESE,103,12.0,15.0,29,0.00,,,0.00,,2013-05-30 15:11:00,
2013-05-30 08:22:00,70.0,35.0,29.94,East,96,11.0,16.0,28,0.00,,,0.00,,2013-05-30 15:22:00,
2013-05-30 08:33:00,71.0,35.0,29.94,East,85,11.0,15.0,27,0.00,,,0.00,,2013-05-30 15:33:00,
2013-05-30 08:42:00,71.0,35.0,29.94,East,85,11.0,15.0,27,0.00,,,0.00,,2013-05-30 15:42:00,
2013-05-30 08:52:00,71.0,34.0,29.95,East,96,13.0,17.0,26,0.00,,,0.00,,2013-05-30 15:52:00,
2013-05-30 09:03:00,72.0,35.0,29.95,ESE,106,12.0,18.0,26,0.00,,,0.00,,2013-05-30 16:03:00,
2013-05-30 09:12:00,72.0,35.0,29.95,ESE,106,12.0,18.0,26,0.00,,,0.00,,2013-05-30 16:12:00,
2013-05-30 09:22:00,72.0,33.0,29.95,ESE,108,13.0,17.0,24,0.00,,,0.00,,2013-05-30 16:22:00,
2013-05-30 09:33:00,73.0,33.0,29.95,ESE,105,12.0,15.0,23,0.00,,,0.00,,2013-05-30 16:33:00,
2013-05-30 09:42:00,73.0,33.0,29.95,ESE,105,12.0,15.0,23,0.00,,,0.00,,2013-05-30 16:42:00,
2013-05-30 09:52:00,74.0,34.0,29.95,ESE,115,11.0,16.0,23,0.00,,,0.00,,2013-05-30 16:52:00,
2013-05-30 10:02:00,75.0,34.0,29.95,East,93,12.0,15.0,22,0.00,,,0.00,,2013-05-30 17:02:00,
2013-05-30 10:11:00,75.0,34.0,29.95,East,93,12.0,15.0,22,0.00,,,0.00,,2013-05-30 17:11:00,
2013-05-30 10:22:00,76.0,33.0,29.95,SE,125,11.0,16.0,21,0.00,,,0.00,,2013-05-30 17:22:00,
2013-05-30 10:32:00,77.0,33.0,29.96,ESE,109,11.0,15.0,20,0.00,,,0.00,,2013-05-30 17:32:00,
2013-05-30 10:42:00,77.0,33.0,29.96,ESE,109,11.0,15.0,20,0.00,,,0.00,,2013-05-30 17:42:00,
2013-05-30 10:52:00,78.0,32.0,29.95,ESE,120,10.0,14.0,19,0.00,,,0.00,,2013-05-30 17:52:00,
2013-05-30 11:02:00,79.0,33.0,29.96,SE,132,9.0,13.0,19,0.00,,,0.00,,2013-05-30 18:02:00,
2013-05-30 11:11:00,79.0,33.0,29.96,SE,132,9.0,13.0,19,0.00,,,0.00,,2013-05-30 18:11:00,
2013-05-30 11:21:00,80.0,33.0,29.95,East,99,8.0,13.0,18,0.00,,,0.00,,2013-05-30 18:21:00,
2013-05-30 11:32:00,81.0,32.0,29.95,ESE,109,7.0,11.0,17,0.00,,,0.00,,2013-05-30 18:32:00,
2013-05-30 11:42:00,81.0,32.0,29.95,ESE,109,7.0,11.0,17,0.00,,,0.00,,2013-05-30 18:42:00,
2013-05-30 11:51:00,82.0,31.0,29.95,ESE,112,9.0,15.0,16,0.00,,,0.00,,2013-05-30 18:51:00,
2013-05-30 12:01:00,82.0,31.0,29.95,ESE,112,6.0,11.0,16,0.00,,,0.00,,2013-05-30 19:01:00,
2013-05-30 12:11:00,82.0,31.0,29.95,ESE,112,6.0,11.0,16,0.00,,,0.00,,2013-05-30 19:11:00,
2013-05-30 12:22:00,83.0,31.0,29.95,ESE,117,7.0,13.0,15,0.00,,,0.00,,2013-05-30 19:22:00,
2013-05-30 12:32:00,85.0,30.0,29.95,East,96,10.0,14.0,14,0.00,,,0.00,,2013-05-30 19:32:00,
2013-05-30 12:42:00,85.0,30.0,29.95,East,96,10.0,14.0,14,0.00,,,0.00,,2013-05-30 19:42:00,
2013-05-30 12:52:00,85.0,29.0,29.95,East,101,11.0,14.0,13,0.00,,,0.00,,2013-05-30 19:52:00,
2013-05-30 13:01:00,86.0,29.0,29.94,East,88,10.0,14.0,13,0.00,,,0.00,,2013-05-30 20:01:00,
2013-05-30 13:11:00,86.0,29.0,29.94,East,88,10.0,14.0,13,0.00,,,0.00,,2013-05-30 20:11:00,
2013-05-30 13:22:00,86.0,27.0,29.94,ESE,122,7.0,15.0,12,0.00,,,0.00,,2013-05-30 20:22:00,
2013-05-30 13:32:00,87.0,26.0,29.93,SSE,162,8.0,13.0,11,0.00,,,0.00,,2013-05-30 20:32:00,
2013-05-30 13:41:00,87.0,26.0,29.93,SSE,162,8.0,13.0,11,0.00,,,0.00,,2013-05-30 20:41:00,
2013-05-30 13:52:00,88.0,25.0,29.93,ESE,114,10.0,17.0,10,0.00,,,0.00,,2013-05-30 20:52:00,
2013-05-30 14:01:00,88.0,22.0,29.92,SE,136,12.0,15.0,9,0.00,,,0.00,,2013-05-30 21:01:00,
2013-05-30 14:11:00,88.0,22.0,29.92,SE,136,12.0,15.0,9,0.00,,,0.00,,2013-05-30 21:11:00,
2013-05-30 14:22:00,90.0,21.0,29.92,ESE,108,12.0,17.0,8,0.00,,,0.00,,2013-05-30 21:22:00,
2013-05-30 14:33:00,90.0,24.0,29.92,East,96,9.0,18.0,9,0.00,,,0.00,,2013-05-30 21:33:00,
2013-05-30 14:42:00,90.0,24.0,29.92,East,96,9.0,18.0,9,0.00,,,0.00,,2013-05-30 21:42:00,
2013-05-30 14:53:00,90.0,18.0,29.91,ESE,106,14.0,19.0,7,0.00,,,0.00,,2013-05-30 21:53:00,
2013-05-30 15:02:00,90.0,21.0,29.91,East,79,10.0,20.0,8,0.00,,,0.00,,2013-05-30 22:02:00,
2013-05-30 15:12:00,90.0,21.0,29.91,East,79,10.0,20.0,8,0.00,,,0.00,,2013-05-30 22:12:00,
2013-05-30 15:22:00,91.0,15.0,29.91,ESE,111,14.0,18.0,6,0.00,,,0.00,,2013-05-30 22:22:00,
2013-05-30 15:32:00,91.0,18.0,29.91,ESE,113,7.0,17.0,7,0.00,,,0.00,,2013-05-30 22:32:00,
2013-05-30 15:42:00,91.0,15.0,29.90,East,100,11.0,17.0,6,0.00,,,0.00,,2013-05-30 22:42:00,
2013-05-30 16:02:00,92.0,19.0,29.89,ESE,114,13.0,18.0,7,0.00,,,0.00,,2013-05-30 23:02:00,
2013-05-30 16:11:00,92.0,19.0,29.89,ESE,114,13.0,18.0,7,0.00,,,0.00,,2013-05-30 23:11:00,
2013-05-30 16:21:00,92.0,22.0,29.89,East,83,8.0,15.0,8,0.00,,,0.00,,2013-05-30 23:21:00,
2013-05-30 16:31:00,92.0,22.0,29.88,SE,125,6.0,16.0,8,0.00,,,0.00,,2013-05-30 23:31:00,
2013-05-30 16:41:00,92.0,22.0,29.88,SE,125,6.0,16.0,8,0.00,,,0.00,,2013-05-30 23:41:00,
2013-05-30 16:52:00,93.0,35.0,29.88,East,84,13.0,17.0,13,0.00,,,0.00,,2013-05-30 23:52:00,
2013-05-30 17:01:00,92.0,38.0,29.88,ESE,108,11.0,18.0,15,0.00,,,0.00,,2013-05-31 00:01:00,
2013-05-30 17:11:00,92.0,38.0,29.88,ESE,108,11.0,18.0,15,0.00,,,0.00,,2013-05-31 00:11:00,
2013-05-30 17:21:00,91.0,35.0,29.88,East,91,9.0,17.0,14,0.00,,,0.00,,2013-05-31 00:21:00,
2013-05-30 17:32:00,92.0,30.0,29.87,ENE,76,11.0,16.0,11,0.00,,,0.00,,2013-05-31 00:32:00,
2013-05-30 17:41:00,91.0,33.0,29.87,East,101,11.0,14.0,13,0.00,,,0.00,,2013-05-31 00:41:00,
2013-05-30 17:52:00,91.0,33.0,29.87,East,101,11.0,14.0,13,0.00,,,0.00,,2013-05-31 00:52:00,
2013-05-30 18:01:00,92.0,32.0,29.87,ENE,60,13.0,16.0,12,0.00,,,0.00,,2013-05-31 01:01:00,
2013-05-30 18:11:00,92.0,32.0,29.87,ENE,60,13.0,16.0,12,0.00,,,0.00,,2013-05-31 01:11:00,
2013-05-30 18:21:00,91.0,37.0,29.87,East,90,13.0,20.0,15,0.00,,,0.00,,2013-05-31 01:21:00,
2013-05-30 18:31:00,89.0,35.0,29.88,ENE,77,14.0,18.0,15,0.00,,,0.00,,2013-05-31 01:31:00,
2013-05-30 18:42:00,89.0,35.0,29.88,ENE,72,11.0,19.0,15,0.00,,,0.00,,2013-05-31 01:42:00,
2013-05-30 18:51:00,89.0,35.0,29.88,ENE,72,11.0,19.0,15,0.00,,,0.00,,2013-05-31 01:51:00,
2013-05-30 19:02:00,88.0,36.0,29.88,ENE,75,10.0,15.0,16,0.00,,,0.00,,2013-05-31 02:02:00,
2013-05-30 19:11:00,88.0,36.0,29.88,ENE,75,10.0,15.0,16,0.00,,,0.00,,2013-05-31 02:11:00,
2013-05-30 19:21:00,88.0,38.0,29.89,East,88,13.0,17.0,17,0.00,,,0.00,,2013-05-31 02:21:00,
2013-05-30 19:31:00,86.0,36.0,29.90,East,79,12.0,19.0,17,0.00,,,0.00,,2013-05-31 02:31:00,
2013-05-30 19:41:00,86.0,36.0,29.90,East,79,12.0,19.0,17,0.00,,,0.00,,2013-05-31 02:41:00,
2013-05-30 19:51:00,85.0,38.0,29.90,East,91,12.0,20.0,19,0.00,,,0.00,,2013-05-31 02:51:00,
2013-05-30 20:01:00,84.0,37.0,29.91,East,90,15.0,19.0,19,0.00,,,0.00,,2013-05-31 03:01:00,
2013-05-30 20:11:00,84.0,37.0,29.91,East,90,15.0,19.0,19,0.00,,,0.00,,2013-05-31 03:11:00,
2013-05-30 20:21:00,82.0,42.0,29.90,ENE,67,10.0,16.0,24,0.00,,,0.00,,2013-05-31 03:21:00,
2013-05-30 20:33:00,80.0,42.0,29.91,East,101,6.0,11.0,26,0.00,,,0.00,,2013-05-31 03:33:00,
2013-05-30 20:43:00,80.0,42.0,29.91,East,101,6.0,11.0,26,0.00,,,0.00,,2013-05-31 03:43:00,
2013-05-30 20:53:00,79.0,41.0,29.91,NE,53,7.0,10.0,26,0.00,,,0.00,,2013-05-31 03:53:00,
2013-05-30 21:02:00,81.0,40.0,29.91,East,84,9.0,16.0,23,0.00,,,0.00,,2013-05-31 04:02:00,
2013-05-30 21:12:00,81.0,40.0,29.91,East,84,9.0,16.0,23,0.00,,,0.00,,2013-05-31 04:12:00,
2013-05-30 21:22:00,81.0,37.0,29.91,ENE,64,10.0,16.0,21,0.00,,,0.00,,2013-05-31 04:22:00,
2013-05-30 21:32:00,82.0,34.0,29.91,NE,46,14.0,20.0,18,0.00,,,0.00,,2013-05-31 04:32:00,
2013-05-30 21:42:00,82.0,34.0,29.91,NE,46,14.0,20.0,18,0.00,,,0.00,,2013-05-31 04:42:00,
2013-05-30 21:52:00,78.0,36.0,29.92,East,84,11.0,17.0,22,0.00,,,0.00,,2013-05-31 04:52:00,
2013-05-30 22:02:00,76.0,46.0,29.93,ESE,105,15.0,18.0,34,0.00,,,0.00,,2013-05-31 05:02:00,
2013-05-30 22:12:00,76.0,46.0,29.93,ESE,105,15.0,18.0,34,0.00,,,0.00,,2013-05-31 05:12:00,
2013-05-30 22:22:00,74.0,48.0,29.93,East,99,17.0,21.0,40,0.00,,,0.00,,2013-05-31 05:22:00,
2013-05-30 22:31:00,73.0,50.0,29.94,ESE,107,17.0,21.0,44,0.00,,,0.00,,2013-05-31 05:31:00,
2013-05-30 22:41:00,73.0,50.0,29.94,ESE,107,17.0,21.0,44,0.00,,,0.00,,2013-05-31 05:41:00,
2013-05-30 22:52:00,73.0,51.0,29.95,ESE,103,14.0,20.0,46,0.00,,,0.00,,2013-05-31 05:52:00,
2013-05-30 23:01:00,72.0,50.0,29.94,ESE,111,16.0,25.0,46,0.00,,,0.00,,2013-05-31 06:01:00,
2013-05-30 23:11:00,72.0,50.0,29.94,ESE,111,16.0,25.0,46,0.00,,,0.00,,2013-05-31 06:11:00,
2013-05-30 23:21:00,72.0,49.0,29.95,East,90,13.0,18.0,44,0.00,,,0.00,,2013-05-31 06:21:00,
2013-05-30 23:31:00,71.0,51.0,29.95,ESE,109,14.0,20.0,49,0.00,,,0.00,,2013-05-31 06:31:00,
2013-05-30 23:41:00,71.0,51.0,29.95,ESE,109,14.0,20.0,49,0.00,,,0.00,,2013-05-31 06:41:00,
2013-05-30 23:52:00,71.0,52.0,29.95,ESE,111,13.0,18.0,51,0.00,,,0.00,,2013-05-31 06:52:00,